[keps] orb09071.amsat
Ray Hoad
r.hoad at att.net
Thu Mar 12 18:19:46 PDT 2009
SB KEPS @ AMSAT $ORB09071.O
Orbital Elements 09071.OSCAR
HR AMSAT ORBITAL ELEMENTS FOR OSCAR SATELLITES
FROM WA5QGD FORT WORTH,TX March 12, 2009
Send Subscribe/unsubscribe to KEPS at
http://www.amsat.org/mailman/listinfo/keps
BID: ORB09071.O
TO ALL RADIO AMATEURS BT
Satellite: AO-07
Catalog number: 07530
Epoch time: 09070.64518355
Element set: 0424
Inclination: 101.4377 deg
RA of node: 098.8704 deg
Eccentricity: 0.0012074
Arg of perigee: 099.5496 deg
Mean anomaly: 260.6938 deg
Mean motion: 12.53575326 rev/day
Decay rate: -2.7e-07 rev/day^2
Epoch rev: 57049
Checksum: 319
Satellite: AO-10
Catalog number: 14129
Epoch time: 09069.65303323
Element set: 0632
Inclination: 025.9749 deg
RA of node: 167.5509 deg
Eccentricity: 0.5979132
Arg of perigee: 204.6974 deg
Mean anomaly: 107.8414 deg
Mean motion: 02.05867899 rev/day
Decay rate: -1.36e-06 rev/day^2
Epoch rev: 19359
Checksum: 342
Satellite: UO-11
Catalog number: 14781
Epoch time: 09070.70377287
Element set: 907
Inclination: 098.1194 deg
RA of node: 114.2301 deg
Eccentricity: 0.0008152
Arg of perigee: 294.9207 deg
Mean anomaly: 065.1150 deg
Mean motion: 14.79699284 rev/day
Decay rate: 1.87e-06 rev/day^2
Epoch rev: 34341
Checksum: 307
Satellite: RS-15
Catalog number: 23439
Epoch time: 09070.95120493
Element set: 0237
Inclination: 064.8132 deg
RA of node: 062.0539 deg
Eccentricity: 0.0146228
Arg of perigee: 070.4260 deg
Mean anomaly: 291.2389 deg
Mean motion: 11.27553248 rev/day
Decay rate: -3.9e-07 rev/day^2
Epoch rev: 58515
Checksum: 299
Satellite: FO-29
Catalog number: 24278
Epoch time: 09070.75490407
Element set: 0001
Inclination: 098.5663 deg
RA of node: 317.8157 deg
Eccentricity: 0.0349829
Arg of perigee: 242.7597 deg
Mean anomaly: 113.7498 deg
Mean motion: 13.52941946 rev/day
Decay rate: -3.2e-07 rev/day^2
Epoch rev: 62057
Checksum: 341
Satellite: SO-33
Catalog number: 25509
Epoch time: 09070.82880247
Element set: 0407
Inclination: 031.4319 deg
RA of node: 243.0131 deg
Eccentricity: 0.0354683
Arg of perigee: 207.3285 deg
Mean anomaly: 150.8278 deg
Mean motion: 14.28247764 rev/day
Decay rate: 3.08e-06 rev/day^2
Epoch rev: 54190
Checksum: 300
Satellite: AO-40
Catalog number: 26609
Epoch time: 09070.74493273
Element set: 201
Inclination: 008.9102 deg
RA of node: 028.8958 deg
Eccentricity: 0.7955221
Arg of perigee: 183.6787 deg
Mean anomaly: 160.9658 deg
Mean motion: 01.25583457 rev/day
Decay rate: -3.25e-06 rev/day^2
Epoch rev: 3840
Checksum: 327
Satellite: RS-22
Catalog number: 27939
Epoch time: 09070.68997137
Element set: 736
Inclination: 097.9588 deg
RA of node: 309.0294 deg
Eccentricity: 0.0014679
Arg of perigee: 080.0252 deg
Mean anomaly: 280.2612 deg
Mean motion: 14.63299572 rev/day
Decay rate: 3.4e-07 rev/day^2
Epoch rev: 29131
Checksum: 336
Satellite: VO-52
Catalog number: 28650
Epoch time: 09070.72862253
Element set: 175
Inclination: 097.7528 deg
RA of node: 135.4844 deg
Eccentricity: 0.0027130
Arg of perigee: 350.3959 deg
Mean anomaly: 009.6772 deg
Mean motion: 14.81559000 rev/day
Decay rate: -1.30e-06 rev/day^2
Epoch rev: 20821
Checksum: 298
Satellite: PO-63
Catalog number: 29712
Epoch time: 09071.16731708
Element set: 303
Inclination: 097.8402 deg
RA of node: 129.8502 deg
Eccentricity: 0.0013227
Arg of perigee: 228.3604 deg
Mean anomaly: 131.6469 deg
Mean motion: 14.80466181 rev/day
Decay rate: 4.23e-06 rev/day^2
Epoch rev: 11711
Checksum: 282
/EX
SB KEPS @ AMSAT $ORB09071.D
Orbital Elements 09071.MICROS
HR AMSAT ORBITAL ELEMENTS FOR THE MICROSATS
FROM WA5QGD FORT WORTH,TX March 12, 2009
Send Subscribe/unsubscribe to KEPS at
http://www.amsat.org/mailman/listinfo/keps
BID: ORB09071.D
TO ALL RADIO AMATEURS BT
Satellite: AO-16
Catalog number: 20439
Epoch time: 09070.78941705
Element set: 0554
Inclination: 098.2672 deg
RA of node: 043.6775 deg
Eccentricity: 0.0011934
Arg of perigee: 099.6208 deg
Mean anomaly: 260.6322 deg
Mean motion: 14.31818045 rev/day
Decay rate: 9.0e-08 rev/day^2
Epoch rev: 99921
Checksum: 321
Satellite: LO-19
Catalog number: 20442
Epoch time: 09070.79250867
Element set: 0476
Inclination: 098.2322 deg
RA of node: 051.3140 deg
Eccentricity: 0.0012979
Arg of perigee: 097.3562 deg
Mean anomaly: 262.9089 deg
Mean motion: 14.32054254 rev/day
Decay rate: -3.9e-07 rev/day^2
Epoch rev: 99937
Checksum: 326
Satellite: AO-27
Catalog number: 22825
Epoch time: 09071.53709153
Element set: 196
Inclination: 098.4250 deg
RA of node: 028.0578 deg
Eccentricity: 0.0008342
Arg of perigee: 183.3809 deg
Mean anomaly: 176.7317 deg
Mean motion: 14.29260754 rev/day
Decay rate: 8.9e-07 rev/day^2
Epoch rev: 80610
Checksum: 316
Satellite: IO-26
Catalog number: 22826
Epoch time: 09070.91433509
Element set: 0917
Inclination: 098.4175 deg
RA of node: 028.2465 deg
Eccentricity: 0.0008699
Arg of perigee: 181.4435 deg
Mean anomaly: 178.6719 deg
Mean motion: 14.29511487 rev/day
Decay rate: 1.0e-07 rev/day^2
Epoch rev: 80611
Checksum: 323
Satellite: GO-32
Catalog number: 25397
Epoch time: 09070.90911461
Element set: 0842
Inclination: 098.3352 deg
RA of node: 098.4201 deg
Eccentricity: 0.0001465
Arg of perigee: 137.9232 deg
Mean anomaly: 222.2062 deg
Mean motion: 14.23155688 rev/day
Decay rate: -2.1e-07 rev/day^2
Epoch rev: 55429
Checksum: 288
Satellite: NO-44
Catalog number: 26931
Epoch time: 09071.17615754
Element set: 118
Inclination: 067.0550 deg
RA of node: 314.2719 deg
Eccentricity: 0.0005183
Arg of perigee: 265.5189 deg
Mean anomaly: 094.5336 deg
Mean motion: 14.29550646 rev/day
Decay rate: 2.37e-06 rev/day^2
Epoch rev: 38871
Checksum: 316
Satellite: SO-50
Catalog number: 27607
Epoch time: 09070.79456488
Element set: 0834
Inclination: 064.5611 deg
RA of node: 320.8881 deg
Eccentricity: 0.0076777
Arg of perigee: 226.9170 deg
Mean anomaly: 132.5498 deg
Mean motion: 14.71418596 rev/day
Decay rate: -9.6e-07 rev/day^2
Epoch rev: 33434
Checksum: 345
Satellite: CO-55
Catalog number: 27844
Epoch time: 09070.58639166
Element set: 530
Inclination: 098.7161 deg
RA of node: 081.1221 deg
Eccentricity: 0.0010814
Arg of perigee: 066.9822 deg
Mean anomaly: 293.2493 deg
Mean motion: 14.20626009 rev/day
Decay rate: 3.8e-07 rev/day^2
Epoch rev: 29540
Checksum: 301
Satellite: CO-57
Catalog number: 27848
Epoch time: 09070.55037388
Element set: 477
Inclination: 098.7170 deg
RA of node: 080.1495 deg
Eccentricity: 0.0010620
Arg of perigee: 069.0402 deg
Mean anomaly: 291.1917 deg
Mean motion: 14.20429909 rev/day
Decay rate: 3.7e-07 rev/day^2
Epoch rev: 29536
Checksum: 319
Satellite: AO-51
Catalog number: 28375
Epoch time: 09070.58975028
Element set: 0337
Inclination: 098.0563 deg
RA of node: 085.8684 deg
Eccentricity: 0.0085147
Arg of perigee: 061.2857 deg
Mean anomaly: 299.6858 deg
Mean motion: 14.40635232 rev/day
Decay rate: 4.0e-08 rev/day^2
Epoch rev: 24690
Checksum: 342
Satellite: CO-56
Catalog number: 28941
Epoch time: 09071.47273898
Element set: 893
Inclination: 098.1282 deg
RA of node: 228.6184 deg
Eccentricity: 0.0112726
Arg of perigee: 135.7236 deg
Mean anomaly: 225.3189 deg
Mean motion: 15.74222420 rev/day
Decay rate: 6.0040e-04 rev/day^2
Epoch rev: 17198
Checksum: 330
Satellite: CP3
Catalog number: 31128
Epoch time: 09070.71301768
Element set: 0578
Inclination: 098.0002 deg
RA of node: 128.3175 deg
Eccentricity: 0.0102021
Arg of perigee: 226.6913 deg
Mean anomaly: 132.5763 deg
Mean motion: 14.52024425 rev/day
Decay rate: -4.7e-07 rev/day^2
Epoch rev: 10075
Checksum: 259
Satellite: CP4
Catalog number: 31132
Epoch time: 09070.71341140
Element set: 0562
Inclination: 098.0042 deg
RA of node: 131.8272 deg
Eccentricity: 0.0084890
Arg of perigee: 216.2340 deg
Mean anomaly: 143.3071 deg
Mean motion: 14.55188340 rev/day
Decay rate: -6.1e-07 rev/day^2
Epoch rev: 10085
Checksum: 248
Satellite: CO-65
Catalog number: 32785
Epoch time: 09070.66266215
Element set: 0320
Inclination: 097.9578 deg
RA of node: 135.3886 deg
Eccentricity: 0.0014837
Arg of perigee: 352.7518 deg
Mean anomaly: 007.3477 deg
Mean motion: 14.81455017 rev/day
Decay rate: -6.4e-07 rev/day^2
Epoch rev: 04700
Checksum: 321
/EX
SB KEPS @ AMSAT $ORB09071.W
Orbital Elements 09071.WEATHER
HR AMSAT ORBITAL ELEMENTS FOR WEATHER SATELLITES
FROM WA5QGD FORT WORTH,TX March 12, 2009
Send Subscribe/unsubscribe to KEPS at
http://www.amsat.org/mailman/listinfo/keps
BID: ORB09071.W
TO ALL RADIO AMATEURS BT
Satellite: NOAA-10
Catalog number: 16969
Epoch time: 09070.93130429
Element set: 0532
Inclination: 098.7014 deg
RA of node: 098.0662 deg
Eccentricity: 0.0012959
Arg of perigee: 118.5484 deg
Mean anomaly: 241.6994 deg
Mean motion: 14.27381955 rev/day
Decay rate: 5.6e-07 rev/day^2
Epoch rev: 16963
Checksum: 333
Satellite: NOAA-11
Catalog number: 19531
Epoch time: 09070.76038007
Element set: 0544
Inclination: 098.7834 deg
RA of node: 162.2228 deg
Eccentricity: 0.0012063
Arg of perigee: 029.4970 deg
Mean anomaly: 330.6869 deg
Mean motion: 14.14889058 rev/day
Decay rate: -2.46e-06 rev/day^2
Epoch rev: 05574
Checksum: 313
Satellite: NOAA-12
Catalog number: 21263
Epoch time: 09070.96889374
Element set: 0060
Inclination: 098.7736 deg
RA of node: 078.9789 deg
Eccentricity: 0.0013382
Arg of perigee: 069.1637 deg
Mean anomaly: 291.0975 deg
Mean motion: 14.25569561 rev/day
Decay rate: 2.6e-07 rev/day^2
Epoch rev: 92654
Checksum: 352
Satellite: MET-3/5
Catalog number: 21655
Epoch time: 09070.90879546
Element set: 0613
Inclination: 082.5510 deg
RA of node: 275.2289 deg
Eccentricity: 0.0014655
Arg of perigee: 064.7014 deg
Mean anomaly: 295.5625 deg
Mean motion: 13.17018723 rev/day
Decay rate: 5.1e-07 rev/day^2
Epoch rev: 84482
Checksum: 310
Satellite: MET-2/21
Catalog number: 22782
Epoch time: 09070.91670523
Element set: 0403
Inclination: 082.5428 deg
RA of node: 259.1682 deg
Eccentricity: 0.0020981
Arg of perigee: 259.3376 deg
Mean anomaly: 100.5411 deg
Mean motion: 13.83634264 rev/day
Decay rate: 7.4e-07 rev/day^2
Epoch rev: 78415
Checksum: 298
